Location: Oracle State Park
(32.6095°N, 110.7330°W)
Time: 08:08:02
(UTC-07:00)

CUBESAT XI-V - Visible Passes

Search period start: 19 May 2019 00:00
Search period end: 29 May 2019 00:00
Orbit: 668 x 694 km, 98.0° (Epoch: 18 May)

Date Brightness Start Highest point End Pass type
(mag) Time Alt. Az. Time Alt. Az. Time Alt. Az.
19 May ? 01:47:53 10° E 01:49:29 12° ENE 01:51:06 10° NE visible
19 May ? 03:25:57 53° WSW 03:26:18 55° W 03:30:49 10° NNW visible
20 May ? 02:24:06 25° E 02:25:22 29° ENE 02:29:18 10° NNE visible
20 May ? 04:02:32 21° W 04:02:39 21° W 04:06:07 10° NW visible
21 May ? 03:00:40 60° SE 03:01:26 76° ENE 03:06:00 10° N visible
22 May ? 01:58:49 13° E 02:00:41 16° ENE 02:03:25 10° NNE visible
22 May ? 03:37:15 39° WSW 03:37:39 40° W 03:41:58 10° NNW visible
23 May ? 02:35:23 32° ESE 02:36:38 39° ENE 02:40:53 10° N visible
23 May ? 04:13:49 15° W 04:14:03 15° W 04:16:46 10° WNW visible
24 May ? 03:11:58 61° S 03:12:44 79° WSW 03:17:20 10° NNW visible
25 May ? 02:10:06 17° E 02:11:54 21° ENE 02:15:18 10° NNE visible
25 May ? 03:48:33 29° WSW 03:49:01 29° W 03:53:01 10° NW visible
26 May ? 02:46:42 41° ESE 02:47:54 53° ENE 02:52:20 10° N visible
26 May ? 04:25:08 11° W 04:25:28 11° W 04:26:45 10° WNW visible
27 May ? 01:45:57 10° E 01:47:16 11° ENE 01:48:35 10° NE visible
27 May ? 03:23:17 50° SW 03:24:04 57° W 03:28:34 10° NNW visible
28 May ? 02:21:27 22° ESE 02:23:08 28° ENE 02:27:00 10° NNE visible
28 May ? 03:59:52 21° WSW 04:00:24 22° W 04:03:55 10° NW visible
